BUGSAT-1 (TITA)

Last updated on Thu Sep 24 2026 00:03:56 GMT+0000 (Coordinated Universal Time)

1 40014U 14033E 26266.57796951 .00003611 00000+0 18800-3 0 9991 2 40014 98.0423 4.9418 0026914 201.8444 158.1642 15.16430998670745
UTC large
Height (km)
Speed (km/s)
/
Latitude / Longitude
Inclination (degrees)
Orbital Period (minutes)
Azimuth
Elevation
Range (km)
Doppler Factor

Next 0 passes for location: London (51.5072 / 0.1276)

No passes found over London.
BUGSAT-1 (TITA)